Weather History for KFLL - October, 2011

Change the Weather History Date:

Saturday, October 22, 2011

  Actual Average Record
Temperature  
Mean Temperature 72 °F 80 °F  
Max Temperature 81 °F 85 °F 90 °F (1959)
Min Temperature 62 °F 74 °F 47 °F (1976)
Degree Days  
Heating Degree Days 0 0  
Month to date heating degree days 0 0  
Since 1 July heating degree days 0 0  
Cooling Degree Days 7 15  
Month to date cooling degree days 310 358  
Year to date cooling degree days 4163 4070  
Growing Degree Days 21 (Base 50)    
Moisture  
Dew Point 56 °F    
Average Humidity 57    
Maximum Humidity 68    
Minimum Humidity 45    
Precipitation  
Precipitation 0.00 in 0.16 in 5.10 in (1966)
Month to date precipitation 7.48 5.30  
Year to date precipitation 30.83 54.96  
Snow  
Snow 0.00 in - - ()
Month to date snowfall 0.0  
Since 1 July snowfall 0.0  
Since 1 September snowfall 0.0  
Snow Depth 0.00 in    
Sea Level Pressure  
Sea Level Pressure 29.96 in    
Wind  
Wind Speed 9 mph (North)    
Max Wind Speed 18 mph    
Max Gust Speed 21 mph    
Visibility 10 miles    
Events      
T = Trace of Precipitation, MM = Missing Value Source: NWS Daily Summary

Daily Weather History Graph

Daily Weather History Graph

Search for Another Location

Airport or City:

Trip Planner

Search our weather history database for the weather conditions in past years. The results will help you decide how hot, cold, wet, or windy it might be!

Date:

Astronomy

Oct. 22, 2011 Rise Set
Actual Time 7:23 AM EDT 6:46 PM EDT
Civil Twilight 6:59 AM EDT 7:10 PM EDT
Nautical Twilight 6:32 AM EDT 7:37 PM EDT
Astronomical Twilight 6:05 AM EDT 8:03 PM EDT
Moon 2:46 AM EDT (10/22) 3:40 PM EDT (10/22)
Length of Visible Light 12h 10m
Length of Day
11h 23m
Waning Crescent, 24% of the Moon is Illuminated
Oct 22
Waning Crescent
Oct 26
New
Nov 2
First Quarter
Nov 10
Full
Nov 18
Last Quarter

Hourly Weather History & Observations

Time (EDT) Temp. Heat Index Dew Point Humidity Pressure Visibility Wind Dir Wind Speed Gust Speed Precip Events Conditions
12:53 AM 64.0 °F - 52.0 °F 65% 30.01 in 10.0 mi NNW 6.9 mph - N/A   Partly Cloudy
1:53 AM 64.0 °F - 52.0 °F 65% 30.00 in 10.0 mi NNW 8.1 mph - N/A   Partly Cloudy
2:53 AM 64.0 °F - 52.0 °F 65% 29.99 in 10.0 mi NNW 9.2 mph - N/A   Mostly Cloudy
3:53 AM 63.0 °F - 51.1 °F 65% 29.97 in 10.0 mi NNW 9.2 mph - N/A   Mostly Cloudy
4:53 AM 63.0 °F - 50.0 °F 63% 29.95 in 10.0 mi NW 9.2 mph - N/A   Mostly Cloudy
5:53 AM 62.1 °F - 50.0 °F 65% 29.95 in 10.0 mi NW 8.1 mph - N/A   Mostly Cloudy
6:53 AM 62.1 °F - 50.0 °F 65% 29.97 in 10.0 mi NW 6.9 mph - N/A   Mostly Cloudy
7:53 AM 63.0 °F - 50.0 °F 63% 29.99 in 10.0 mi NW 6.9 mph - N/A   Partly Cloudy
8:53 AM 66.0 °F - 55.0 °F 68% 29.99 in 10.0 mi NNW 12.7 mph 19.6 mph N/A   Partly Cloudy
9:53 AM 70.0 °F - 55.9 °F 61% 30.00 in 10.0 mi NW 10.4 mph - N/A   Partly Cloudy
10:53 AM 73.9 °F - 57.9 °F 57% 30.00 in 10.0 mi NW 12.7 mph - N/A   Partly Cloudy
11:53 AM 77.0 °F - 59.0 °F 54% 29.99 in 10.0 mi North 6.9 mph - N/A   Partly Cloudy
12:53 PM 79.0 °F - 60.1 °F 52% 29.96 in 10.0 mi NE 12.7 mph 19.6 mph N/A   Scattered Clouds
1:53 PM 79.0 °F - 59.0 °F 50% 29.94 in 10.0 mi NE 11.5 mph - N/A   Partly Cloudy
2:53 PM 80.1 °F 80.4 °F 57.0 °F 45% 29.91 in 10.0 mi ENE 11.5 mph 17.3 mph N/A   Partly Cloudy
3:53 PM 80.1 °F 80.6 °F 57.9 °F 47% 29.90 in 10.0 mi NE 12.7 mph - N/A   Partly Cloudy
4:53 PM 78.1 °F - 57.9 °F 50% 29.91 in 10.0 mi NE 9.2 mph - N/A   Scattered Clouds
5:53 PM 78.1 °F - 59.0 °F 52% 29.91 in 10.0 mi NE 12.7 mph - N/A   Mostly Cloudy
6:53 PM 77.0 °F - 60.1 °F 56% 29.91 in 10.0 mi NE 11.5 mph - N/A   Mostly Cloudy
7:53 PM 75.9 °F - 57.0 °F 52% 29.92 in 10.0 mi NNE 11.5 mph - N/A   Mostly Cloudy
8:53 PM 73.9 °F - 57.0 °F 55% 29.94 in 10.0 mi NNW 5.8 mph - N/A   Partly Cloudy
9:53 PM 73.0 °F - 57.0 °F 57% 29.94 in 10.0 mi NNW 6.9 mph - N/A   Mostly Cloudy
10:53 PM 73.0 °F - 57.9 °F 59% 29.95 in 10.0 mi NNW 8.1 mph - N/A   Mostly Cloudy
11:53 PM 72.0 °F - 60.1 °F 66% 29.95 in 10.0 mi NNW 8.1 mph - N/A   Overcast